Regional Weather Roundup
Issued by NWS Kansas City/Pleasant Hill, MO

Home | Current Version | Previous Version | Text Only | Print | Product List | Glossary On
Versions: 1 2 3 4 5 6 7 8 9 10 11 12 13 14 15 16 17 18 19 20 21 22 23 24 25 26 27 28 29 30 31 32 33 34 35 36 37 38 39 40 41 42 43 44 45 46 47 48 49 50
000
ASUS43 KEAX 240310
RWREAX

WEATHER ROUNDUP FOR EASTERN KANSAS AND NORTHWEST MISSOURI
NATIONAL WEATHER SERVICE KANSAS CITY/PLEASANT HILL MO
900 PM CST SUN NOV 23 2014

KSZ040-057-103>105-MOZ028-029-037-043-240400-
...KANSAS CITY METROPOLITAN AREA...

CITY           SKY/WX    TMP DP  RH WIND       PRES   REMARKS
K.C. INTL      LGT RAIN  42  40  92 N21G28    29.46R WCI  33
K.C. DOWNTOWN  LGT RAIN  41  36  82 NW14G31   29.47R WCI  33
LEES SUMMIT    NOT AVBL
OLATHE - IXD   LGT RAIN  40  37  89 NW24G32   29.48R WCI  29
OLATHE - OJC   LGT RAIN  40  37  89 N21G31    29.46R WCI  30
LAWRENCE       CLOUDY    40  37  89 NW17      29.51S WCI  31

$$

MOZ001>008-011>017-020>025-030>033-038>040-044>046-053-054-240400-
...NORTHERN AND CENTRAL MISSOURI...

CITY           SKY/WX    TMP DP  RH WIND       PRES   REMARKS
ST. JOSEPH     CLOUDY    42  37  82 NW16      29.48F WCI  34
MOSBY          LGT RAIN  39  36  87 NW22G33   29.45R WCI  29
WARRENSBURG    DRIZZLE   43  39  87 NW17G33   29.38R WCI  35
WHITEMAN AFB   RAIN      44  41  89 N31G38    29.35R FOG     WCI  34
CLINTON        HVY RAIN  45  45 100 NW25G32   29.39R
SEDALIA        HVY RAIN  45  43  93 NW23G32   29.36R FOG
WARSAW         NOT AVBL
MARSHALL       LGT RAIN  46  46 100 NW21G28   29.35R
CHILLICOTHE      N/A     43  40  89 NW16G26   29.40R
KIRKSVILLE     CLOUDY    46  45  96 NW13G22   29.29S FOG

$$

MOZ041-047>049-056>058-063>065-088>090-097-240400-
...EASTERN AND SOUTHERN MISSOURI...

CITY           SKY/WX    TMP DP  RH WIND       PRES   REMARKS
ST. LOUIS INTL DRIZZLE   56  53  90 SW8       29.25F
SPIRIT OF STL  CLOUDY    53  53 100 W3        29.25S FOG
COLUMBIA       CLOUDY    53  53 100 W6        29.26F FOG
JEFFERSON CITY CLOUDY    54  53  97 CALM      29.26F FOG
MEXICO         FOG      N/A N/A N/A W6        29.25F VSB 3/4
ROLLA          CLOUDY    54  53  97 SW8       29.26F
LEBANON        LGT RAIN  54  52  94 S3        29.28F
OSAGE BEACH    CLOUDY    54  50  87 CALM      29.28S
SPRINGFIELD    RAIN      49  47  93 NW24G31   29.32R FOG
BRANSON        MOCLDY    54  54 100 SW7       29.32S
NEVADA         CLOUDY    43  39  87 NW24G31   29.43R WCI  33
JOPLIN         RAIN      44  42  93 NW21G26   29.46R FOG
WEST PLAINS    CLOUDY    57  54  89 S9        29.31F

$$

IAZ060-094-KSZ022-034>040-054-083-096-NEZ052-066-093-240400-
...KANSAS...SOUTHEAST NEBRASKA AND IOWA...

CITY           SKY/WX    TMP DP  RH WIND       PRES   REMARKS
TOPEKA         CLOUDY    44  35  70 NW15G24   29.53S
MANHATTAN      CLOUDY    42  34  73 NW7       29.60R
EMPORIA        CLOUDY    41  35  79 NW16G25   29.55S WCI  33
CHANUTE        LGT RAIN  42  38  85 NW21G37   29.52R WCI  33
WICHITA        CLOUDY    43  35  73 NW15      29.64R
OMAHA          CLOUDY    42  30  62 NW20      29.52F WCI  33
LINCOLN        MOCLDY    41  26  55 NW22G30   29.59S WCI  31
FALLS CITY     CLOUDY    42  33  70 NW14      29.51S WCI  35
LAMONI         LGT RAIN  39  36  89 NW24G33   29.39R WCI  28
DES MOINES     LGT RAIN  41  36  82 N22G35    29.39S WCI  31

$$




USA.gov is the U.S. government's official web portal to all federal, state and local government web resources and services.